Regional Weather Roundup
Issued by NWS

Home | Current Version | Previous Version | Text Only | Print | Product List | Glossary On
Versions: 1 2 3 4 5 6 7 8 9 10 11 12 13 14 15 16 17 18 19 20 21 22 23 24 25 26 27 28 29 30 31 32 33 34 35 36 37 38 39 40 41 42 43 44 45 46 47 48 49 50
213
ASUS43 KLSX 030710
RWRMO

WEATHER SUMMARY FOR MISSOURI
NATIONAL WEATHER SERVICE SPRINGFIELD MO
100 AM CST SAT DEC 03 2016

NOTE: "FAIR" INDICATES FEW OR NO CLOUDS BELOW 12,000 FEET WITH NO
       SIGNIFICANT WEATHER AND/OR OBSTRUCTIONS TO VISIBILITY.
       CURRENT SKY AND/OR WEATHER CONDITIONS ARE NOT AVAILABLE FOR
       CHILLICOTHE AND FARMINGTON.

MOZ001>031-035>038-043-044-053-054-030800-
...NORTHERN AND WESTERN MISSOURI...

CITY           SKY/WX    TMP DP  RH WIND       PRES   REMARKS
KANSAS CTY INT NOT AVBL
KANSAS C DTWN  PTCLDY    33  29  85 CALM      30.36F
CHILLICOTHE      N/A     28  25  88 CALM      30.38F

$$
MOZ066>068-077>081-088>096-101>105-030800-
...SOUTHWEST MISSOURI...

CITY           SKY/WX    TMP DP  RH WIND       PRES   REMARKS
SPRINGFIELD    NOT AVBL
BRANSON        CLOUDY    45  32  61 E6        30.30S

$$
MOZ032>034-039>042-045>050-055>058-069>072-030800-
...CENTRAL MISSOURI...

CITY           SKY/WX    TMP DP  RH WIND       PRES   REMARKS
COLUMBIA       PTCLDY    34  27  75 E5        30.35F WCI  30
WHITEMAN AFB   PTCLDY    31  28  87 CALM      30.34F
WARRENSBURG    PTCLDY    30  27  86 NW5       30.35F WCI  25

$$
MOZ051-052-059>065-030800-
...EAST CENTRAL MISSOURI...

CITY           SKY/WX    TMP DP  RH WIND       PRES   REMARKS
ST LOUIS INTL  PTCLDY    35  28  75 CALM      30.37F
SPIRIT OF STL  CLEAR     27  26  96 CALM      30.37S
ST CHARLES     FOG       29  29 100 N5        30.37S VSB 1   WCI  24

$$
MOZ072>076-082>087-097>100-106>115-030800-
...SOUTH CENTRAL AND SOUTHEAST MISSOURI...

CITY           SKY/WX    TMP DP  RH WIND       PRES   REMARKS
CAPE GIRARDEAU NOT AVBL

$$




USA.gov is the U.S. government's official web portal to all federal, state and local government web resources and services.